Tucson Davis Monthan, AZ

5:22 PM MST on October 19, 2017 (GMT -0700)
Davis-Monthan Air Force Base

Weather History for KDMA - May, 2013

Change the Weather History Date:

Thursday, May 2, 2013

  Actual Average Record
Temperature  
Mean Temperature 74 °F -  
Max Temperature 89 °F 85 °F 99 °F (1986)
Min Temperature 59 °F 55 °F 39 °F (1967)
Cooling Degree Days 9    
Growing Degree Days 24 (Base 50)    
Moisture  
Dew Point 17 °F    
Average Humidity 12    
Maximum Humidity 23    
Minimum Humidity 5    
Precipitation  
Precipitation 0.00 in - - ()
Sea Level Pressure  
Sea Level Pressure 29.98 in    
Wind  
Wind Speed 8 mph (East)    
Max Wind Speed 21 mph    
Max Gust Speed 25 mph    
Visibility 10 miles    
Events      
Averages and records for this station are not official NWS values.
T = Trace of Precipitation, MM = Missing Value Source: NWS Daily Summary

Daily Weather History Graph

Daily Weather History Graph

Search for Another Location

Airport or City:

Trip Planner

Search our weather history database for the weather conditions in past years. The results will help you decide how hot, cold, wet, or windy it might be!

Date:

Astronomy

May. 02, 2013 Rise Set
Actual Time 5:36 AM MST 7:05 PM MST
Civil Twilight 5:09 AM MST 7:31 PM MST
Nautical Twilight 4:38 AM MST 8:02 PM MST
Astronomical Twilight 4:06 AM MST 8:35 PM MST
Moon 1:00 AM MST (5/2) 12:22 PM MST (5/2)
Length of Visible Light 14h 21m
Length of Day
13h 29m
Waning Gibbous, 46% of the Moon is Illuminated
May 2
Waning Gibbous
May 9
New
May 17
First Quarter
May 24
Full
May 31
Last Quarter

Hourly Weather History & Observations

Time (MST) Temp. Dew Point Humidity Pressure Visibility Wind Dir Wind Speed Gust Speed Precip Events Conditions
12:58 AM 66.2 °F 21.9 °F 19% 29.93 in 10.0 mi WSW 5.8 mph - N/A   Clear
1:58 AM 64.4 °F 21.7 °F 20% 29.93 in 10.0 mi WSW 6.9 mph - N/A   Clear
2:58 AM 63.3 °F 21.9 °F 21% 29.93 in 10.0 mi South 6.9 mph - N/A   Clear
3:58 AM 62.6 °F 21.0 °F 20% 29.95 in 10.0 mi SE 8.1 mph - N/A   Clear
4:58 AM 61.3 °F 21.4 °F 22% 29.96 in 10.0 mi South 2.3 mph - N/A   Clear
5:58 AM 59.2 °F 21.2 °F 23% 30.00 in 10.0 mi SE 3.5 mph - N/A   Clear
6:58 AM 65.1 °F 22.3 °F 20% 30.02 in 10.0 mi SSE 11.5 mph - N/A   Clear
7:58 AM 72.5 °F 13.3 °F 10% 30.02 in 10.0 mi SSE 5.8 mph - N/A   Clear
8:58 AM 76.5 °F 14.4 °F 10% 30.14 in 10.0 mi WNW 6.9 mph - N/A   Clear
9:58 AM 77.7 °F 12.7 °F 8% 30.04 in 10.0 mi Calm Calm - N/A   Clear
10:58 AM 83.8 °F 6.3 °F 5% 30.01 in 10.0 mi ENE 13.8 mph - N/A   Clear
11:29 AM 84.2 °F 8.6 °F 6% 30.12 in 10.0 mi NNE 12.7 mph - N/A   Clear
11:58 AM 85.3 °F 11.5 °F 6% 30.00 in 10.0 mi ENE 8.1 mph - N/A   Clear
12:58 PM 86.4 °F 12.2 °F 6% 29.98 in 10.0 mi Variable 5.8 mph - N/A   Clear
1:58 PM 87.1 °F 12.7 °F 6% 29.96 in 10.0 mi SSE 2.3 mph 17.3 mph N/A   Clear
2:58 PM 88.5 °F 17.4 °F 7% 29.94 in 10.0 mi NNE 8.1 mph - N/A   Clear
3:58 PM 89.2 °F 15.1 °F 6% 29.92 in 10.0 mi North 10.4 mph - N/A   Clear
4:58 PM 88.9 °F 14.2 °F 6% 29.91 in 10.0 mi NE 11.5 mph 17.3 mph N/A   Clear
5:58 PM 87.3 °F 16.5 °F 7% 29.91 in 10.0 mi NE 19.6 mph - N/A   Clear
6:58 PM 83.5 °F 16.7 °F 8% 29.92 in 10.0 mi ENE 17.3 mph 23.0 mph N/A   Clear
7:58 PM 80.2 °F 14.2 °F 8% 29.94 in 10.0 mi NE 17.3 mph - N/A   Clear
8:58 PM 77.7 °F 12.4 °F 8% 29.95 in 10.0 mi ENE 16.1 mph 25.3 mph N/A   Clear
9:58 PM 75.9 °F 18.1 °F 11% 29.98 in 10.0 mi East 12.7 mph 21.9 mph N/A   Clear
10:50 PM 71.6 °F 23.0 °F 16% 30.10 in 10.0 mi ESE 12.7 mph - N/A   Clear
10:58 PM 71.4 °F 21.9 °F 16% 29.98 in 10.0 mi ESE 17.3 mph 23.0 mph N/A   Clear
11:58 PM 68.9 °F 22.8 °F 18% 30.00 in 10.0 mi ESE 20.7 mph - N/A   Clear